Voltar ao catálogo

ONEWEB-0505

AtivoComunicaçõesPO
NORAD 54123·PAYLOAD·🇬🇧 United Kingdom

Lançado Oct 22, 2022 de Satish Dhawan Space Centre

Loading…

Próximas Passagens (próximas 24 horas)

TLE

AtualizadoSource: CelesTrak SupGP

Época: Sep 15, 2026, 01:11 UTC

1 54123C 22138L   26258.04947177  .00000228  00000+0  57022-3 0  2581
2 54123  87.9110 287.0677 0002195  82.6739 304.2405 13.19727857    11

Acompanhe ONEWEB-0505 em tempo real com AllMySat

Download on the App Store